This is the latest recevied weather packets stored in our database for station/object NI0Z. If no packets are shown the sender has not sent any weather packets the latest 10 day(s).
| Time | Temp. | Humidity | Pressure | Rain* | Wind** | Luminosity | Snow |
|---|---|---|---|---|---|---|---|
| 1777933891 | 26.67° C | 47% | - | 0 mm | - | - | - |
| 1777933588 | 26.67° C | 47% | - | 0 mm | - | - | - |
| 1777933285 | 26.67° C | 45% | - | 0 mm | - | - | - |
| 1777932983 | 26.67° C | 46% | - | 0 mm | - | - | - |
| 1777932680 | 26.67° C | 48% | - | 0 mm | - | - | - |
| 1777932376 | 26.11° C | 51% | - | 0 mm | - | - | - |
| 1777932074 | 26.11° C | 48% | - | 0 mm | - | - | - |
| 1777931769 | 26.11° C | 49% | - | 0 mm | - | - | - |
| 1777931467 | 25.56° C | 48% | - | 0 mm | - | - | - |
| 1777931163 | 25.56° C | 49% | - | 0 mm | - | - | - |
| 1777930859 | 25.56° C | 47% | - | 0 mm | - | - | - |
| 1777930556 | 26.11° C | 48% | - | 0 mm | - | - | - |
| 1777930253 | 26.11° C | 50% | - | 0 mm | - | - | - |
| 1777929949 | 26.11° C | 48% | - | 0 mm | - | - | - |
| 1777929646 | 26.11° C | 52% | - | 0 mm | - | - | - |
| 1777929343 | 25.56° C | 49% | - | 0 mm | - | - | - |
| 1777929040 | 25.56° C | 48% | - | 0 mm | - | - | - |
| 1777928737 | 25.56° C | 50% | - | 0 mm | - | - | - |
| 1777928434 | 25.56° C | 50% | - | 0 mm | - | - | - |
| 1777928132 | 25.56° C | 49% | - | 0 mm | - | - | - |
| 1777927829 | 26.11° C | 48% | - | 0 mm | - | - | - |
| 1777927527 | 26.11° C | 48% | - | 0 mm | - | - | - |
| 1777927226 | 26.67° C | 48% | - | 0 mm | - | - | - |
| 1777926924 | 26.67° C | 48% | - | 0 mm | - | - | - |
| 1777926621 | 27.22° C | 47% | - | 0 mm | - | - | - |
* Rain latest hour (hover to see other rain measurements)
** Current wind speed in m/s (hover to see current wind gust speed)